Location: Kumla
(59.1265°N, 15.1401°E)
Time: 08:17:05
(UTC+01:00)

Transit 2A - Pass Details

Date: 04 December 2023
Orbit: 600 x 953 km, 66.7° (Epoch: 22 February)

Event Time Altitude Azimuth Distance (km) Brightness Sun altitude
Rises 00:04:43 0° 310° (NW) 2,891 - -52.9°
Reaches altitude 10° 00:07:04 10° 304° (NW) 1,964 - -52.9°
Maximum altitude 00:11:12 43° 233° (SW) 851 - -52.8°
Drops below altitude 10° 00:15:20 10° 162° (SSE) 1,959 - -52.7°
Sets 00:17:40 0° 156° (SSE) 2,883 - -52.7°
